Location: Unspecified
(27.9433°N, 0.0000°E)
Time: 10:44:14
(UTC+00:00)

NOAA 16 DEB - Visible Passes

Search period start: 04 April 2026 00:00
Search period end: 14 April 2026 00:00
Orbit: 746 x 762 km, 99.0° (Epoch: 28 March)

Date Brightness Start Highest point End Pass type
(mag) Time Alt. Az. Time Alt. Az. Time Alt. Az.
4 Apr ? 02:32:22 15° ENE 02:33:01 15° ENE 02:35:44 10° NE visible
4 Apr ? 04:12:18 39° WNW 04:12:18 39° WNW 04:16:01 10° NNW visible
5 Apr ? 03:31:22 64° ENE 03:31:22 64° ENE 03:36:11 10° N visible
6 Apr ? 02:50:25 22° E 02:51:25 23° ENE 02:55:18 10° NNE visible
6 Apr ? 04:30:21 27° W 04:30:21 27° W 04:34:09 10° NW visible
7 Apr ? 03:49:22 73° SSW 03:49:47 80° WSW 03:54:47 10° NNW visible
8 Apr ? 03:08:24 30° ESE 03:09:51 36° ENE 03:14:21 10° N visible
8 Apr ? 04:48:19 18° W 04:48:32 18° W 04:51:50 10° NW visible
9 Apr ? 02:27:47 10° E 02:30:06 13° ENE 02:32:25 10° NE visible
9 Apr ? 04:07:20 43° SW 04:08:18 50° W 04:13:08 10° NNW visible
10 Apr ? 03:26:19 34° SE 03:28:14 57° ENE 03:33:07 10° N visible
10 Apr ? 05:06:14 10° WSW 05:07:09 10° W 05:08:06 10° W visible
11 Apr ? 02:45:17 12° ESE 02:48:22 21° ENE 02:52:01 10° NNE visible
11 Apr ? 04:25:12 26° SW 04:26:48 31° W 04:31:11 10° NW visible
12 Apr ? 03:44:10 31° SSE 03:46:38 90° W 03:51:37 10° NNW visible
13 Apr ? 03:03:07 14° SE 03:06:38 32° ENE 03:11:01 10° N visible
13 Apr ? 04:43:02 15° SW 04:45:16 20° W 04:48:51 10° NW visible
